Regional Weather Roundup
Issued by NWS

Home | Current Version | Previous Version | Graphics & Text | Print | Product List | Glossary On
Versions: 1 2 3 4 5 6 7 8 9 10 11 12 13 14 15 16 17 18 19 20 21 22 23 24 25 26 27 28 29 30 31 32 33 34 35 36 37 38 39 40 41 42 43 44 45 46 47 48 49 50
000
ASUS45 KPSR 010000
RWRAZ

PRELIMINARY ARIZONA REGIONAL HOURLY WEATHER ROUNDUP
NATIONAL WEATHER SERVICE PHOENIX AZ
500 PM MST SAT FEB 28 2015

NOTE: FAIR INDICATES FEW OR NO CLOUDS BELOW 12,000 FEET WITH NO
SIGNIFICANT WEATHER AND/OR OBSTRUCTIONS TO VISIBILITY.

AZZ001>003-036-010100-
NORTHWEST ARIZONA

CITY           SKY/WX    TMP DP  RH WIND       PRES   REMARKS
KINGMAN        PTSUNNY   54  28  36 SW23G33   29.77S
6HR MIN TEMP:  51; 6HR MAX TEMP:  57;

$$

AZZ004>008-015-016-018-010100-
NORTH CENTRAL ARIZONA

CITY           SKY/WX    TMP DP  RH WIND       PRES   REMARKS
GRAND CANYON   CLOUDY    38  28  67 SW14      29.80R WCI  30
6HR MIN TEMP:  32; 6HR MAX TEMP:  38; 6HR PCP:  0.32;

PRESCOTT       PTSUNNY   50  29  44 SW16G31   29.83R
6HR MIN TEMP:  46; 6HR MAX TEMP:  54;

FLAGSTAFF      NOT AVBL
PAYSON         LGT RAIN  45  41  87 VRB3G13   29.91S
PAGE           LGT RAIN  46  37  71 NW7       29.77R
6HR MIN TEMP:  39; 6HR MAX TEMP:  47; 6HR PCP: TRACE;

$$

AZZ009>014-017-010100-
NORTHEAST ARIZONA

CITY           SKY/WX    TMP DP  RH WIND       PRES   REMARKS
WINSLOW        NOT AVBL
SAINT JOHNS    CLOUDY    50  36  58 SW22G32   29.85R
6HR MIN TEMP:  50; 6HR MAX TEMP:  54;

WINDOW ROCK    LGT RAIN  38  35  89 SW9       29.84R WCI  31
6HR MIN TEMP:  38; 6HR MAX TEMP:  43; 6HR PCP:  0.12;

SHOW LOW       LGT RAIN  39  37  93 SW29G39   29.88R WCI  28
$$

AZZ023-010100-
GREATER PHOENIX AREA

CITY           SKY/WX    TMP DP  RH WIND       PRES   REMARKS
PHOENIX        CLOUDY    70  42  36 S8        29.80S
6HR MIN TEMP:  65; 6HR MAX TEMP:  70;

BUCKEYE        MOSUNNY   68  45  42 S20G25    29.81R
GLENDALE       PTSUNNY   70  43  37 SW12      29.82R
DEER VALLEY    PTSUNNY   66  41  40 SW12      29.81R
6HR MIN TEMP:  60; 6HR MAX TEMP:  67;

SCOTTSDALE     CLOUDY    67  42  40 S6        29.83S
6HR MIN TEMP:  62; 6HR MAX TEMP:  67; 6HR PCP: TRACE;

MESA-FALCON    CLOUDY    66  43  42 S12       29.82S
MESA-GATEWAY   CLOUDY    64  46  52 S7        29.85S
CHANDLER       CLOUDY    68  46  45 SW7G23    29.83R
$$

AZZ027-028-010100-
SOUTHWEST MARICOPA COUNTY AND PINAL COUNTY

CITY           SKY/WX    TMP DP  RH WIND       PRES   REMARKS
CASA GRANDE    CLOUDY    66  45  45 S17       29.84R
6HR MIN TEMP:  64; 6HR MAX TEMP:  72;

$$

AZZ503-504-507>509-010100-
SOUTHEAST ARIZONA

CITY           SKY/WX    TMP DP  RH WIND       PRES   REMARKS
TUCSON         PTSUNNY   70  40  33 W16G25    29.86S
6HR MIN TEMP:  66; 6HR MAX TEMP:  72;

DAVIS-MONTHAN  PTSUNNY   69  42  37 W12G23    29.84S
6HR MIN TEMP:  64; 6HR MAX TEMP:  70;

RYAN FIELD       N/A     72  43  35 SW20G26   29.86S
NOGALES        CLOUDY    64  41  42 S13G23    29.91S
6HR MIN TEMP:  60; 6HR MAX TEMP:  70;

SIERRA VISTA   MOSUNNY   62  38  40 SW20      29.92S
6HR MIN TEMP:  60; 6HR MAX TEMP:  67;

SAFFORD        CLOUDY    65  40  39 NW15      29.83R
6HR MIN TEMP:  64; 6HR MAX TEMP:  70;

$$

AZZ020-021-025-026-031-010100-
SOUTHWEST ARIZONA

CITY           SKY/WX    TMP DP  RH WIND       PRES   REMARKS
YUMA           NOT AVBL
$$

CAZ031-033-041-043-047-048-061-010100-
SOUTHERN CALIFORNIA

CITY           SKY/WX    TMP DP  RH WIND       PRES   REMARKS
DOWNTOWN L.A.  MOSUNNY   61  45  55 VRB3      29.84R
6HR MIN TEMP:  60; 6HR MAX TEMP:  65;

L.A. AIRPORT   PTSUNNY   60  46  59 SW13      29.85R
6HR MIN TEMP:  58; 6HR MAX TEMP:  61;

SAN DIEGO      PTSUNNY   62  46  55 SW9       29.89S
6HR MIN TEMP:  60; 6HR MAX TEMP:  63;

BURBANK        SUNNY     58  43  57 S14       29.82R
6HR MIN TEMP:  56; 6HR MAX TEMP:  61; 6HR PCP: TRACE;

ONTARIO        PTSUNNY   57  41  55 S9        29.84R
6HR MIN TEMP:  57; 6HR MAX TEMP:  61; 6HR PCP: TRACE;

RIVERSIDE      PTSUNNY   61  38  42 SW13      29.84R
6HR MIN TEMP:  57; 6HR MAX TEMP:  63; 6HR PCP: TRACE;

PALM SPRINGS   MOSUNNY   66  34  30 SE6       29.78R
6HR MIN TEMP:  66; 6HR MAX TEMP:  71;

EL CENTRO NAS  SUNNY     69  38  32 SW24G35   29.79F
6HR MIN TEMP:  68; 6HR MAX TEMP:  74;

IMPERIAL       SUNNY     70  40  33 W16       29.79R
6HR MIN TEMP:  68; 6HR MAX TEMP:  73; 6HR PCP: TRACE;

BLYTHE         MOSUNNY   70  38  31 SW21      29.77S
6HR MIN TEMP:  68; 6HR MAX TEMP:  74;

$$

NVZ020-UTZ003-010100-
SOUTHERN NEVADA-UTAH

CITY           SKY/WX    TMP DP  RH WIND       PRES   REMARKS
LAS VEGAS      NOT AVBL
SALT LAKE CITY LGT RAIN  37  31  78 NW6       29.76R WCI  32
6HR MIN TEMP:  37; 6HR MAX TEMP:  45; 6HR PCP: TRACE;

$$

NMZ009-TXZ055-010100-
NEW MEXICO-WEST TEXAS

CITY           SKY/WX    TMP DP  RH WIND       PRES   REMARKS
ALBUQUERQUE    PTSUNNY   35  26  69 N15       29.91R WCI  25
6HR MIN TEMP:  27; 6HR MAX TEMP:  38;

EL PASO        MOSUNNY   69  28  21 VRB3      29.87S
6HR MIN TEMP:  44; 6HR MAX TEMP:  69;

$$


........................KEY........................
SKY/WX - SKY CONDITION/WEATHER
TMP    - TEMPERATURE IN FAHRENHEIT
DP     - DEW POINT IN FAHRENHEIT
RH     - RELATIVE HUMIDITY IN PERCENT
WIND   - DIRECTION AND SPEED IN MILES PER HOUR (MPH)
VRB    - VARIABLE WIND DIRECTION
PRES   - MEAN SEA LEVEL PRESSURE IN INCHES OF MERCURY
         F - FALLING PRESSURE   R - RISING PRESSURE
         S - STEADY PRESSURE
VSB    - VISIBILITY IN MILES
HX     - HEAT INDEX IN FAHRENHEIT
WCI    - WIND CHILL INDEX IN FAHRENHEIT
TC     - TEMPERATURE IN CELSIUS WHICH IS ALSO KNOWN AS
         TEMPERATURE IN CENTIGRADE
AFB    - AIR FORCE BASE
         LUKE AFB IS LUKE AIR FORCE BASE
         DAVIS-MONTHAN IS DAVIS-MONTHAN AIR FORCE BASE
NAS    - NAVAL AIR STATION
         EL CENTRO NAS IS EL CENTRO NAVAL AIR STATION
N/A    - NOT AVAILABLE


USA.gov is the U.S. government's official web portal to all federal, state and local government web resources and services.